Location: Oshawa
(43.9000°N, 78.8670°W)
Time: 16:56:25
(UTC-05:00)

SPOT 5 - Pass Details

Date: 27 June 2018
Orbit: 623 x 815 km, 98.3° (Epoch: 16 November)

Event Time Altitude Azimuth Distance (km) Brightness Sun altitude
Exits shadow 23:39:56 15° 214° (SW) 2,031 4.9 -19.1°
Maximum altitude 23:43:24 29° 266° (W) 1,449 4.6 -19.4°
Drops below altitude 10° 23:47:59 10° 325° (NW) 2,406 6.7 -19.7°
Sets 23:50:41 0° 337° (NNW) 3,350 8.0 -19.9°
